{"data":{"norad_id":68284,"epoch":"2026-09-20T04:31:09.487200Z","epoch_age_seconds":78504,"freshness":"FRESH","line1":"1 68284U 26055Y   26263.18830425  .00014030  00000+0  42548-3 0  9999","line2":"2 68284  53.1585 133.4484 0001291  63.6954 296.4181 15.34407799 29742","mean_motion":15.34407799,"eccentricity":0.0001291,"inclination_deg":53.1585,"raan_deg":133.4484,"arg_perigee_deg":63.6954,"mean_anomaly_deg":296.4181,"bstar":0.00042548,"rev_number":2974,"period_min":93.84728107733,"perigee_km":461.79691055127,"apogee_km":463.56320951617,"semimajor_km":6840.8170600337,"source":"CELESTRAK","updated_at":"2026-09-20T09:00:43.850895Z"}}